When you browse on this site, cookies collect data to enhance your experience and personalize the content and advertising you see.
Visit our Privacy Policy to learn more. By continuing to use the site, you agree to this use of cookies and data.
  • In Hungary
  • List of Countries
  • For 7 days
  • Water Temperature
  • Weather Map
  • News
  • Weather Widgets
  • user-avatar
    Login

    Hourly Weather Khliborobne

    Today, 29 March, Sunday

    Time Temperature Precipitation Wind Pressure Humidity
    00:00 +8°C° 0 mm 5 mps 742 mmHg 46%
    01:00 +8°C° 0 mm 5 mps 741 mmHg 47%
    02:00 +7°C° 0 mm 5 mps 741 mmHg 47%
    03:00 +7°C° 0 mm 5 mps 741 mmHg 49%
    04:00 +6°C° 0 mm 5 mps 740 mmHg 52%
    05:00 +5°C° 0 mm 4 mps 740 mmHg 55%
    06:00 +6°C° 0 mm 5 mps 740 mmHg 54%
    07:00 +6°C° 0 mm 5 mps 740 mmHg 53%
    08:00 +7°C° 0 mm 6 mps 740 mmHg 53%
    09:00 +8°C° 0 mm 5 mps 739 mmHg 52%
    10:00 +9°C° 0 mm 5 mps 739 mmHg 51%
    11:00 +10°C° 0 mm 4 mps 739 mmHg 49%
    12:00 +11°C° 0 mm 4 mps 739 mmHg 48%
    13:00 +12°C° 0 mm 3 mps 738 mmHg 47%
    14:00 +13°C° 0 mm 3 mps 738 mmHg 45%
    15:00 +14°C° 0 mm 2 mps 738 mmHg 47%
    16:00 +14°C° 0 mm 2 mps 738 mmHg 49%
    17:00 +14°C° 0 mm 1 mps 738 mmHg 51%
    18:00 +13°C° 0 mm 1 mps 738 mmHg 55%
    19:00 +12°C° 0 mm 1 mps 738 mmHg 58%
    20:00 +11°C° 0 mm 1 mps 738 mmHg 62%
    21:00 +11°C° 0 mm 1 mps 737 mmHg 63%
    22:00 +10°C° 0 mm 1 mps 737 mmHg 65%
    23:00 +10°C° 0 mm 1 mps 737 mmHg 67%

    Tomorrow, 30 March, Monday

    Time Temperature Precipitation Wind Pressure Humidity
    00:00 +10°C° 0 mm 1 mps 737 mmHg 68%
    01:00 +9°C° 0 mm 2 mps 737 mmHg 68%
    02:00 +8°C° 0 mm 2 mps 737 mmHg 69%
    03:00 +8°C° 0 mm 2 mps 737 mmHg 70%
    04:00 +8°C° 0 mm 2 mps 737 mmHg 71%
    05:00 +9°C° 0 mm 1 mps 737 mmHg 71%
    06:00 +9°C° 0 mm 2 mps 737 mmHg 68%
    07:00 +9°C° 0 mm 2 mps 738 mmHg 65%
    08:00 +10°C° 0 mm 2 mps 738 mmHg 61%
    09:00 +13°C° 0 mm 2 mps 738 mmHg 57%
    10:00 +13°C° 0 mm 3 mps 738 mmHg 52%
    11:00 +14°C° 0 mm 3 mps 738 mmHg 48%
    12:00 +16°C° 0 mm 3 mps 738 mmHg 48%
    13:00 +16°C° 0 mm 3 mps 738 mmHg 48%
    14:00 +17°C° 0 mm 4 mps 738 mmHg 48%
    15:00 +16°C° 0.1 mm 3 mps 738 mmHg 50%
    16:00 +16°C° 0.1 mm 3 mps 739 mmHg 52%
    17:00 +16°C° 0.1 mm 3 mps 739 mmHg 54%
    18:00 +14°C° 0 mm 3 mps 739 mmHg 57%
    19:00 +12°C° 0 mm 3 mps 740 mmHg 61%
    20:00 +11°C° 0 mm 3 mps 740 mmHg 64%
    21:00 +11°C° 0 mm 3 mps 741 mmHg 68%
    22:00 +10°C° 0 mm 3 mps 741 mmHg 71%
    23:00 +8°C° 0 mm 4 mps 741 mmHg 74%

    Day after tomorrow, 31 March, Tuesday

    Time Temperature Precipitation Wind Pressure Humidity
    00:00 +8°C° 0 mm 4 mps 742 mmHg 78%
    01:00 +7°C° 0 mm 4 mps 742 mmHg 82%
    02:00 +6°C° 0 mm 4 mps 742 mmHg 85%
    03:00 +5°C° 0 mm 4 mps 743 mmHg 85%
    04:00 +5°C° 0 mm 4 mps 743 mmHg 85%
    05:00 +4°C° 0 mm 4 mps 744 mmHg 84%
    06:00 +5°C° 0 mm 4 mps 744 mmHg 79%
    07:00 +5°C° 0 mm 5 mps 745 mmHg 73%
    08:00 +6°C° 0 mm 5 mps 745 mmHg 68%
    09:00 +7°C° 0 mm 5 mps 745 mmHg 62%
    10:00 +8°C° 0 mm 5 mps 746 mmHg 57%
    11:00 +9°C° 0 mm 5 mps 746 mmHg 51%
    12:00 +9°C° 0 mm 5 mps 746 mmHg 50%
    13:00 +9°C° 0 mm 5 mps 746 mmHg 48%
    14:00 +10°C° 0 mm 5 mps 746 mmHg 47%
    15:00 +9°C° 0 mm 5 mps 746 mmHg 48%
    16:00 +8°C° 0 mm 5 mps 746 mmHg 49%
    17:00 +7°C° 0 mm 4 mps 746 mmHg 50%
    18:00 +6°C° 0 mm 5 mps 747 mmHg 52%
    19:00 +5°C° 0 mm 5 mps 747 mmHg 54%
    20:00 +5°C° 0 mm 5 mps 747 mmHg 56%
    21:00 +3°C° 0 mm 5 mps 748 mmHg 57%
    22:00 +3°C° 0 mm 5 mps 748 mmHg 59%
    23:00 +2°C° 0 mm 6 mps 748 mmHg 60%

    1 April, Wednesday

    Time Temperature Precipitation Wind Pressure Humidity
    00:00 +2°C° 0 mm 5 mps 748 mmHg 60%
    01:00 +1°C° 0 mm 5 mps 748 mmHg 60%
    02:00 +1°C° 0 mm 5 mps 748 mmHg 61%
    03:00 0°C° 0 mm 5 mps 749 mmHg 61%
    04:00 0°C° 0 mm 5 mps 749 mmHg 60%
    05:00 -1°C° 0 mm 5 mps 749 mmHg 60%
    06:00 -1°C° 0 mm 6 mps 749 mmHg 56%
    07:00 -1°C° 0 mm 6 mps 749 mmHg 53%
    08:00 -1°C° 0 mm 6 mps 750 mmHg 49%
    09:00 +1°C° 0 mm 6 mps 750 mmHg 44%
    10:00 +2°C° 0 mm 5 mps 750 mmHg 39%
    11:00 +3°C° 0 mm 5 mps 749 mmHg 35%
    12:00 +5°C° 0 mm 4 mps 749 mmHg 32%
    13:00 +6°C° 0 mm 4 mps 749 mmHg 30%
    14:00 +6°C° 0 mm 4 mps 749 mmHg 28%
    15:00 +6°C° 0 mm 4 mps 748 mmHg 28%
    16:00 +5°C° 0 mm 4 mps 748 mmHg 29%
    17:00 +5°C° 0 mm 3 mps 747 mmHg 29%
    18:00 +4°C° 0 mm 3 mps 748 mmHg 32%
    19:00 +3°C° 0 mm 3 mps 748 mmHg 36%
    20:00 +2°C° 0 mm 3 mps 748 mmHg 39%
    21:00 +1°C° 0 mm 3 mps 748 mmHg 40%
    22:00 +1°C° 0 mm 3 mps 748 mmHg 41%
    23:00 0°C° 0 mm 3 mps 748 mmHg 43%

    2 April, Thursday

    Time Temperature Precipitation Wind Pressure Humidity
    00:00 0°C° 0 mm 3 mps 748 mmHg 45%
    01:00 0°C° 0 mm 3 mps 748 mmHg 46%
    02:00 -1°C° 0 mm 3 mps 748 mmHg 48%
    03:00 -1°C° 0 mm 3 mps 747 mmHg 49%
    04:00 -1°C° 0 mm 2 mps 747 mmHg 49%
    05:00 -2°C° 0 mm 2 mps 747 mmHg 49%
    06:00 0°C° 0 mm 3 mps 747 mmHg 45%
    07:00 +1°C° 0 mm 3 mps 747 mmHg 41%
    08:00 +3°C° 0 mm 3 mps 747 mmHg 37%
    09:00 +4°C° 0 mm 3 mps 747 mmHg 34%
    10:00 +6°C° 0 mm 2 mps 747 mmHg 32%
    11:00 +7°C° 0 mm 2 mps 747 mmHg 29%
    12:00 +8°C° 0 mm 2 mps 747 mmHg 28%
    13:00 +10°C° 0 mm 1 mps 746 mmHg 28%
    14:00 +10°C° 0 mm 1 mps 746 mmHg 27%
    15:00 +10°C° 0 mm 1 mps 746 mmHg 28%
    16:00 +10°C° 0 mm 1 mps 746 mmHg 29%
    17:00 +8°C° 0 mm 2 mps 746 mmHg 31%
    18:00 +7°C° 0 mm 2 mps 746 mmHg 34%
    19:00 +6°C° 0 mm 2 mps 746 mmHg 37%
    20:00 +5°C° 0 mm 2 mps 746 mmHg 41%
    21:00 +4°C° 0 mm 2 mps 746 mmHg 42%
    22:00 +4°C° 0 mm 2 mps 746 mmHg 43%
    23:00 +3°C° 0 mm 2 mps 746 mmHg 44%

    3 April, Friday

    Time Temperature Precipitation Wind Pressure Humidity
    00:00 +3°C° 0 mm 2 mps 746 mmHg 45%
    01:00 +2°C° 0 mm 2 mps 746 mmHg 45%
    02:00 +2°C° 0 mm 2 mps 746 mmHg 46%
    03:00 +2°C° 0 mm 2 mps 746 mmHg 46%
    04:00 +2°C° 0 mm 1 mps 746 mmHg 46%
    05:00 +2°C° 0 mm 1 mps 746 mmHg 47%
    06:00 +4°C° 0 mm 1 mps 747 mmHg 43%
    07:00 +4°C° 0 mm 2 mps 747 mmHg 39%
    08:00 +6°C° 0 mm 2 mps 747 mmHg 35%
    09:00 +7°C° 0 mm 2 mps 747 mmHg 33%
    10:00 +8°C° 0 mm 2 mps 747 mmHg 30%
    11:00 +9°C° 0 mm 2 mps 747 mmHg 28%
    12:00 +10°C° 0 mm 2 mps 747 mmHg 27%
    13:00 +10°C° 0 mm 2 mps 747 mmHg 27%
    14:00 +12°C° 0 mm 2 mps 747 mmHg 27%
    15:00 +12°C° 0 mm 2 mps 747 mmHg 29%
    16:00 +12°C° 0 mm 2 mps 747 mmHg 31%
    17:00 +12°C° 0 mm 2 mps 746 mmHg 32%
    18:00 +10°C° 0 mm 1 mps 747 mmHg 37%
    19:00 +9°C° 0 mm 1 mps 747 mmHg 42%
    20:00 +8°C° 0 mm 1 mps 747 mmHg 46%
    21:00 +7°C° 0 mm 1 mps 747 mmHg 48%
    22:00 +6°C° 0 mm 2 mps 748 mmHg 50%
    23:00 +5°C° 0 mm 2 mps 748 mmHg 51%
    Show more